Flag for U.S.A. Weather past 2 weeks in Warminster Township, Pennsylvania, U.S.A.

Now
60 °F

Overcast.


Feels Like: 60 °F
Forecast: 59 / 71 °F
Wind: 5 mph from North

Location: Doylestown Airport

Current Time: Oct 1, 2014 at 4:26:19 AM

Latest Report: Oct 1, 2014 at 3:54 AM


Visibility: 10 mi

Pressure: 29.97 "Hg

Humidity: 93%

Dew point: 58 °F

Location of Warminster TownshipLocation

Historic Weather in Warminster Township — Graph

°F

Warminster Township temperature yesterday

Maximum temperature yesterday: 77 °F (at 1:54 PM)
Minimum temperature yesterday: 58 °F (at 4:54 AM)
Average temperature yesterday: 65 °F

Past Weeks' High & Low Weather Summary

 TemperatureHumidityPressure
High83 °F (Sep 27, 3:54 PM)100% (Sep 16, 2:54 AM)30.53 "Hg (Sep 16, 2:54 AM)
Low43 °F (Sep 23, 3:54 AM)34% (Sep 23, 3:54 PM)29.62 "Hg (Sep 21, 5:54 PM)
Average62 °F75%30.11 "Hg
* Reported Sep 16 2:54 AM — Oct 1 2:54 AM, Warminster Township, Weather by CustomWeather, © 2014

Note: Actual official high and low records may vary slightly from our data, if they occured in-between our weather recording intervals... More about our weather records

Advertising

Warminster Township weather history for previous 24 hours

 ConditionsComfort  
Time TempWeatherWind HumidityBarometerVisibility
2:54 AM
Oct 1
60 °FMostly cloudy.3 mph93%29.98 "Hg10 mi
1:54 AM60 °FOvercast.No wind96%29.98 "Hg10 mi
12:54 AM60 °FOvercast.3 mph96%29.97 "Hg10 mi
12:04 AM60 °FMostly cloudy.No wind96%29.98 "Hg10 mi
11:54 PM
Sep 30
59 °FMostly cloudy.No wind96%29.97 "Hg10 mi
10:54 PM60 °FPassing clouds.No wind93%29.96 "Hg10 mi
9:54 PM61 °FPassing clouds.No wind93%29.96 "Hg10 mi
8:54 PM62 °FClear.No wind86%29.96 "Hg10 mi
7:54 PM64 °FClear.No wind81%29.93 "Hg10 mi
6:54 PM65 °FSunny.No wind78%29.91 "Hg10 mi
5:54 PM68 °FSunny.No wind70%29.90 "Hg10 mi
4:54 PM72 °FPartly sunny.3 mph53%29.88 "Hg10 mi
3:54 PM74 °FPartly sunny.No wind46%29.89 "Hg10 mi
2:54 PM75 °FScattered clouds.5 mph47%29.89 "Hg10 mi
1:54 PM77 °FPassing clouds.6 mph42%29.90 "Hg10 mi
12:54 PM74 °FSunny.No wind46%29.91 "Hg10 mi
11:54 AM71 °FPassing clouds.3 mph51%29.93 "Hg10 mi
10:54 AM70 °FSunny.No wind68%29.93 "Hg10 mi
9:54 AM64 °FSunny.No wind87%29.95 "Hg10 mi
8:54 AM60 °FSunny.No wind100%29.95 "Hg10 mi
7:54 AM59 °FFog.No wind100%29.94 "Hg5 mi
6:54 AM58 °FFog.No wind100%29.93 "Hg1 mi
5:50 AM59 °FFog.No wind100%29.92 "Hg3 mi
4:54 AM58 °FFog.No wind100%29.91 "Hg1 mi
Weather by CustomWeather, © 2014

See weather overviewHow to use our weather pages